TimeCDT,TemperatureF,Dew PointF,Humidity,Sea Level PressureIn,VisibilityMPH,Wind Direction,Wind SpeedMPH,Gust SpeedMPH,PrecipitationIn,Events,Conditions,WindDirDegrees,DateUTC
12:44 AM,60.8,57.2,88,30.05,10.0,NNW,11.5,16.1,N/A,,Mostly Cloudy,340,2012-10-06 05:44:00
12:53 AM,60.1,55.9,86,30.05,10.0,North,12.7,-,N/A,,Overcast,360,2012-10-06 05:53:00
1:53 AM,55.9,52.0,87,30.07,10.0,North,8.1,-,N/A,,Overcast,350,2012-10-06 06:53:00
2:53 AM,52.0,48.9,89,30.08,10.0,North,13.8,20.7,N/A,,Overcast,10,2012-10-06 07:53:00
3:53 AM,52.0,48.9,89,30.09,10.0,North,6.9,-,N/A,,Overcast,360,2012-10-06 08:53:00
4:53 AM,53.1,48.9,86,30.09,10.0,NNW,6.9,-,N/A,,Overcast,340,2012-10-06 09:53:00
5:53 AM,52.0,48.9,89,30.11,10.0,North,10.4,-,N/A,,Overcast,10,2012-10-06 10:53:00
6:53 AM,52.0,48.9,89,30.12,10.0,North,10.4,-,N/A,,Overcast,360,2012-10-06 11:53:00
7:53 AM,51.1,48.0,89,30.14,10.0,North,11.5,-,N/A,,Overcast,350,2012-10-06 12:53:00
8:33 AM,51.8,48.2,88,30.14,10.0,North,10.4,-,N/A,,Overcast,10,2012-10-06 13:33:00
8:53 AM,52.0,48.0,86,30.15,10.0,North,11.5,-,N/A,,Overcast,10,2012-10-06 13:53:00
9:53 AM,51.1,46.9,86,30.17,10.0,NNE,15.0,-,N/A,,Overcast,20,2012-10-06 14:53:00
10:53 AM,52.0,46.9,83,30.15,10.0,NNE,11.5,-,N/A,,Overcast,30,2012-10-06 15:53:00
11:53 AM,52.0,46.9,83,30.13,10.0,North,8.1,-,N/A,,Overcast,360,2012-10-06 16:53:00
12:53 PM,55.0,48.0,77,30.12,10.0,NNW,8.1,-,N/A,,Overcast,340,2012-10-06 17:53:00
1:19 PM,55.4,48.2,77,30.12,10.0,Variable,3.5,-,N/A,,Overcast,0,2012-10-06 18:19:00
1:53 PM,55.0,48.0,77,30.12,10.0,NNW,6.9,-,N/A,,Overcast,340,2012-10-06 18:53:00
2:53 PM,55.9,48.9,77,30.10,10.0,North,5.8,-,N/A,,Overcast,360,2012-10-06 19:53:00
3:53 PM,55.0,50.0,83,30.09,10.0,NNE,6.9,-,N/A,,Overcast,30,2012-10-06 20:53:00
4:39 PM,53.6,50.0,88,30.10,10.0,North,8.1,-,N/A,,Overcast,360,2012-10-06 21:39:00
4:53 PM,52.0,50.0,93,30.12,6.0,NNW,11.5,18.4,N/A,,Overcast,340,2012-10-06 21:53:00
5:13 PM,51.8,48.2,88,30.12,6.0,North,6.9,16.1,0.00,Rain,Light Rain,350,2012-10-06 22:13:00
5:53 PM,51.1,48.9,92,30.12,10.0,North,8.1,-,0.00,,Overcast,360,2012-10-06 22:53:00
6:06 PM,51.8,48.2,88,30.12,10.0,North,6.9,-,N/A,,Overcast,350,2012-10-06 23:06:00
6:13 PM,51.8,48.2,88,30.12,10.0,North,6.9,-,N/A,,Overcast,10,2012-10-06 23:13:00
6:21 PM,51.8,48.2,88,30.12,10.0,North,6.9,-,N/A,,Overcast,10,2012-10-06 23:21:00
6:53 PM,50.0,48.0,93,30.13,10.0,North,10.4,-,N/A,,Overcast,350,2012-10-06 23:53:00
7:53 PM,50.0,46.9,89,30.15,10.0,North,8.1,-,N/A,,Overcast,350,2012-10-07 00:53:00
8:27 PM,50.0,46.4,87,30.15,10.0,North,9.2,-,N/A,,Overcast,10,2012-10-07 01:27:00
8:53 PM,50.0,46.9,89,30.14,10.0,NNE,5.8,-,N/A,,Overcast,20,2012-10-07 01:53:00
9:53 PM,50.0,46.9,89,30.16,10.0,North,5.8,-,N/A,,Overcast,360,2012-10-07 02:53:00
10:53 PM,50.0,46.4,87,30.16,10.0,North,6.9,-,N/A,,Overcast,10,2012-10-07 03:53:00
11:53 PM,50.0,46.0,86,30.16,10.0,North,5.8,-,N/A,,Overcast,350,2012-10-07 04:53:00